Location: Bishop�s Knoyle
(51.0728°N, 2.1714°W)
Time: 14:32:47
(UTC+00:00)

NOSS 3-4 (C) - Pass Details

Date: 23 January 2021
Orbit: 878 x 1335 km, 63.4° (Epoch: 16 February)

Event Time Altitude Azimuth Distance (km) Brightness Sun altitude
Rises 17:29:28 0° 256° (WSW) 3,506 8.7 -7.2°
Reaches altitude 10° 17:32:04 10° 264° (W) 2,600 7.2 -7.6°
Maximum altitude 17:37:44 40° 334° (NNW) 1,381 4.4 -8.4°
Drops below altitude 10° 17:43:56 10° 43° (NE) 2,846 5.4 -9.3°
Enters shadow 17:44:31 - 45° (NE) 3,046 5.5 -9.4°
